[[{"header":{"parameterUnit":"m.s-1","parameterCategory":1,"la1":30.2991,"la2":30.254,"lo1":-89.0895,"lo2":-89.0444,"dy":0.0017,"dx":0.0017,"nx":28,"ny":28,"refTime":"2024-05-28T21:00:00:Z","depth":0,"parameterNumber":2,"parameterNumberName":"U-component_of_WINDS"},"data":[0,0,0,0,0,0,0,0,0,0,0,0,0,0,0,0,0,0,0,0,0,0,0,0,0,0,0,0,0,0,0,0,0,0,0,0,0,0,0,0,0,0,0,0,0,0,0,0,0,0,0,0,0,0,0,0,0,0,-0.2904,-0.2903,0,-0.2857,-0.2857,-0.2856,-0.2832,-0.2832,-0.2832,-0.2832,-0.2784,-0.2783,-0.2782,0,0,0,0,0,0,0,0,0,0,0,0,0,-0.2972,-0.2971,-0.2904,-0.2903,-0.2903,-0.2857,-0.2857,-0.2856,-0.2832,-0.2832,-0.2832,-0.2832,-0.2785,-0.2783,-0.2782,0,0,0,0,0,0,0,0,0,0,0,0,0,-0.2936,-0.2971,-0.2904,-0.2885,-0.2883,-0.2857,-0.2857,-0.2856,-0.2832,-0.2832,-0.2832,-0.2832,-0.2785,-0.2783,-0.2781,-0.2771,0,0,-0.2776,-0.2775,0,0,0,0,0,0,0,0,-0.2938,-0.2933,-0.2889,-0.2886,-0.2884,-0.285,-0.2863,-0.2827,-0.2832,-0.2852,-0.2832,-0.2832,-0.2806,-0.2803,-0.2794,-0.2768,-0.2766,-0.2775,-0.2774,-0.2774,-0.2773,0,0,0,0,0,0,0,-0.294,-0.2935,-0.2885,-0.2888,-0.2885,-0.2879,-0.2874,-0.2856,-0.283,-0.285,-0.2848,-0.2843,-0.2805,-0.2796,-0.2793,-0.2766,-0.2776,-0.2774,-0.2773,-0.2772,-0.2729,-0.2729,0,0,0,0,0,0,-0.2946,-0.2937,-0.2887,-0.2884,-0.2911,-0.2878,-0.2872,-0.2861,-0.283,-0.2825,-0.2843,-0.2842,-0.2799,-0.2795,-0.2791,-0.2776,-0.2774,-0.2772,-0.2771,-0.2729,-0.2729,-0.2729,0,0,0,0,0,0,-0.2947,-0.2942,-0.2889,-0.291,-0.2903,-0.2877,-0.2865,-0.286,-0.2851,-0.2825,-0.282,-0.2838,-0.2799,-0.2794,-0.2776,-0.2774,-0.2771,-0.2769,-0.2729,-0.2729,-0.2729,-0.2747,0,0,0,0,0,0,-0.2949,-0.2942,-0.2938,-0.291,-0.2902,-0.2874,-0.2865,-0.2859,-0.2848,-0.2846,-0.2819,-0.2815,-0.2798,-0.2779,-0.2774,-0.2772,-0.2768,-0.2729,-0.2729,-0.2729,-0.2747,-0.2748,-0.2749,0,0,0,0,0,-0.2952,-0.2945,-0.2938,-0.2932,-0.2896,-0.2874,-0.287,-0.2851,-0.2848,-0.2843,-0.2826,-0.2815,-0.2775,-0.2777,-0.2772,-0.2769,-0.2729,-0.2729,-0.2729,-0.2746,-0.2748,-0.2749,0,0,0,0,0,0,-0.2972,-0.2941,-0.2933,-0.2916,-0.2898,-0.287,-0.2864,-0.2853,-0.2836,-0.2835,-0.2813,-0.2807,-0.2792,-0.2778,-0.2781,-0.2757,-0.2751,-0.275,-0.2766,-0.2767,-0.2768,-0.2772,-0.2766,0,0,0,0,0,-0.2975,-0.296,-0.2933,-0.2921,-0.2913,-0.289,-0.288,-0.2868,-0.2848,-0.284,-0.2822,-0.2804,-0.2787,-0.2776,-0.2759,-0.2745,-0.2739,-0.274,-0.2741,-0.2742,-0.2741,-0.2733,-0.2733,-0.2729,-0.2729,-0.2729,0,0,-0.298,-0.2961,-0.2953,-0.2925,-0.291,-0.2895,-0.2884,-0.2869,-0.2858,-0.2838,-0.282,-0.2807,-0.2784,-0.2768,-0.276,-0.2757,-0.2741,-0.2742,-0.2743,-0.2742,-0.2733,-0.2733,-0.2734,-0.2729,-0.2729,-0.2729,0,0,-0.2982,-0.2966,-0.2955,-0.294,-0.2917,-0.2902,-0.2899,-0.2873,-0.2863,-0.2845,-0.283,-0.2817,-0.2788,-0.2773,-0.2762,-0.2759,-0.2749,-0.2754,-0.276,-0.2752,-0.2752,-0.2753,-0.2752,-0.2752,-0.2754,-0.2754,-0.2754,0,-0.2992,-0.2969,-0.295,-0.2936,-0.2924,-0.2906,-0.2894,-0.2881,-0.2853,-0.2846,-0.2842,-0.2807,-0.279,-0.2771,-0.277,-0.2762,-0.2758,-0.2757,-0.2754,-0.2754,-0.2754,-0.2753,-0.2753,-0.2755,-0.2754,-0.2754,-0.2754,0,-0.2982,-0.2966,-0.296,-0.2934,-0.2922,-0.2909,-0.2888,-0.2878,-0.2867,-0.2852,-0.2834,-0.2814,-0.2793,-0.2788,-0.2777,-0.2767,-0.2765,-0.2758,-0.2752,-0.2756,-0.2754,-0.2754,-0.2756,-0.2755,-0.2755,-0.2755,0,0,-0.2995,-0.2959,-0.2957,-0.2946,-0.2919,-0.2907,-0.2894,-0.2873,-0.2865,-0.2847,-0.2835,-0.2812,-0.2806,-0.2793,-0.278,-0.2773,-0.2772,-0.2767,-0.2766,-0.2769,-0.2761,-0.2766,-0.2766,-0.2765,-0.2765,-0.2765,-0.2763,0,-0.2993,-0.2968,-0.2951,-0.2933,-0.2919,-0.2902,-0.289,-0.2873,-0.2859,-0.2845,-0.283,-0.2814,-0.2806,-0.2798,-0.2791,-0.2774,-0.2771,-0.2774,-0.2754,-0.2754,-0.276,-0.2765,-0.2771,-0.277,-0.2762,-0.2762,-0.2762,0,-0.2988,-0.2971,-0.2951,-0.2927,-0.292,-0.291,-0.289,-0.2877,-0.2858,-0.2848,-0.2834,-0.2821,-0.2806,-0.2802,-0.2781,-0.2784,-0.2775,-0.2766,-0.2765,-0.2763,-0.2758,-0.2763,-0.2769,-0.2769,-0.2761,-0.2761,-0.2761,0,-0.3,-0.2972,-0.2956,-0.2947,-0.2918,-0.2912,-0.2899,-0.288,-0.2869,-0.2852,-0.2844,-0.2826,-0.2815,-0.2801,-0.2784,-0.2782,-0.2765,-0.2759,-0.2757,-0.2757,-0.2754,-0.2754,-0.2759,-0.2748,-0.2748,-0.2748,-0.2748,0,-0.3,-0.2988,-0.2961,-0.2952,-0.2939,-0.292,-0.2908,-0.2894,-0.2877,-0.2864,-0.2848,-0.2837,-0.2815,-0.2801,-0.2787,-0.2772,-0.2768,-0.276,-0.2756,-0.2761,-0.2762,-0.2755,-0.2755,-0.2748,-0.2748,-0.2748,-0.2748,0,-0.301,-0.2992,-0.2974,-0.2949,-0.2942,-0.2934,-0.2912,-0.2902,-0.2888,-0.2873,-0.2868,-0.2846,-0.2829,-0.281,-0.2786,-0.2777,-0.2764,-0.2758,-0.277,-0.2768,-0.2767,-0.2768,-0.2767,-0.2766,-0.2756,-0.2757,-0.2757,0,-0.3012,-0.3003,-0.2976,-0.2967,-0.2956,-0.2941,-0.293,-0.291,-0.29,-0.2877,-0.287,-0.2852,-0.2837,-0.281,-0.2792,-0.2774,-0.2768,-0.2769,-0.2765,-0.2771,-0.2769,-0.2769,-0.2769,-0.277,-0.2771,-0.2771,-0.2771,0,-0.3016,-0.3007,-0.2992,-0.2974,-0.2961,-0.2946,-0.293,-0.2923,-0.2901,-0.2889,-0.2872,-0.286,-0.2836,-0.2819,-0.2799,-0.2786,-0.2775,-0.2772,-0.2771,-0.2776,-0.2784,-0.278,-0.2773,-0.2772,-0.2772,-0.2772,-0.2772,-0.2772,-0.3022,-0.3013,-0.2994,-0.2977,-0.2963,-0.2949,-0.2939,-0.2924,-0.2909,-0.2888,-0.2878,-0.2861,-0.2842,-0.2814,-0.2802,-0.2788,-0.2784,-0.2782,-0.2782,-0.2782,-0.2783,-0.2786,-0.2784,-0.2784,-0.2784,-0.2784,-0.2784,0,-0.3025,-0.3012,-0.2997,-0.2976,-0.2963,-0.2954,-0.2936,-0.2926,-0.2911,-0.2894,-0.288,-0.286,-0.2843,-0.2823,-0.2805,-0.2798,-0.2793,-0.2794,-0.2794,-0.2792,-0.2787,-0.279,-0.2799,-0.2799,-0.2799,-0.2799,-0.2799,-0.2799,-0.3026,-0.3011,-0.3,-0.2979,-0.2965,-0.2949,-0.2939,-0.2926,-0.2913,-0.2892,-0.2877,-0.2865,-0.2847,-0.2828,-0.2812,-0.2806,-0.2801,-0.2804,-0.2797,-0.2793,-0.2792,-0.2791,-0.2794,-0.2803,-0.2803,-0.2802,-0.2802,-0.2802]},{"header":{"parameterUnit":"m.s-1","parameterCategory":1,"la1":30.2991,"la2":30.254,"lo1":-89.0895,"lo2":-89.0444,"dy":0.0017,"dx":0.0017,"nx":28,"ny":28,"refTime":"2024-05-28T21:00:00:Z","depth":0,"parameterNumber":3,"parameterNumberName":"V-component_of_WINDS"},"data":[0,0,0,0,0,0,0,0,0,0,0,0,0,0,0,0,0,0,0,0,0,0,0,0,0,0,0,0,0,0,0,0,0,0,0,0,0,0,0,0,0,0,0,0,0,0,0,0,0,0,0,0,0,0,0,0,0,0,2.1233,2.1233,0,2.1264,2.1265,2.1265,2.1283,2.1283,2.1283,2.1283,2.1314,2.1315,2.1316,0,0,0,0,0,0,0,0,0,0,0,0,0,2.1189,2.1189,2.1233,2.1233,2.1234,2.1264,2.1265,2.1265,2.1283,2.1283,2.1283,2.1283,2.1314,2.1315,2.1316,0,0,0,0,0,0,0,0,0,0,0,0,0,2.1213,2.119,2.1233,2.1246,2.1248,2.1264,2.1265,2.1265,2.1283,2.1283,2.1283,2.1283,2.1314,2.1315,2.1316,2.1321,0,0,2.132,2.132,0,0,0,0,0,0,0,0,2.1211,2.1214,2.1244,2.1245,2.1247,2.127,2.126,2.1284,2.1283,2.127,2.1283,2.1283,2.1299,2.1302,2.1307,2.1322,2.1324,2.132,2.132,2.1321,2.1321,0,0,0,0,0,0,0,2.121,2.1213,2.1245,2.1244,2.1246,2.1251,2.1254,2.1265,2.1283,2.1271,2.1272,2.1276,2.13,2.1306,2.1308,2.1324,2.132,2.1321,2.1321,2.1322,2.1346,2.1346,0,0,0,0,0,0,2.1206,2.1211,2.1244,2.1246,2.1229,2.1251,2.1255,2.1262,2.1283,2.1287,2.1276,2.1276,2.1304,2.1307,2.1309,2.1317,2.1321,2.1322,2.1323,2.1346,2.1346,2.1346,0,0,0,0,0,0,2.1205,2.1209,2.1243,2.1229,2.1234,2.1252,2.126,2.1263,2.1269,2.1287,2.129,2.1278,2.1304,2.1308,2.1318,2.1318,2.1323,2.1324,2.1346,2.1346,2.1346,2.1332,0,0,0,0,0,0,2.1203,2.1208,2.121,2.1229,2.1235,2.1251,2.126,2.1263,2.1271,2.1272,2.129,2.1293,2.1305,2.1316,2.1319,2.132,2.1324,2.1346,2.1346,2.1346,2.1332,2.1331,2.133,0,0,0,0,0,2.1202,2.1205,2.121,2.1214,2.1238,2.1251,2.1254,2.1267,2.1271,2.1273,2.1285,2.1293,2.1318,2.1317,2.1321,2.1322,2.1346,2.1346,2.1346,2.1333,2.1331,2.133,0,0,0,0,0,0,2.1185,2.1207,2.1214,2.1223,2.1235,2.1254,2.1257,2.1266,2.1277,2.1278,2.1293,2.1297,2.1306,2.1315,2.1314,2.1328,2.1333,2.1333,2.1322,2.1321,2.132,2.1317,2.1325,0,0,0,0,0,2.1182,2.1192,2.1211,2.1217,2.1223,2.1239,2.1245,2.1255,2.1268,2.1273,2.1285,2.1298,2.1308,2.1315,2.1326,2.1334,2.1338,2.1336,2.1335,2.1334,2.1334,2.134,2.1339,2.1345,2.1345,2.1345,0,0,2.1177,2.119,2.1195,2.1214,2.1224,2.1234,2.1243,2.1252,2.126,2.1274,2.1285,2.1294,2.1309,2.1319,2.1323,2.1326,2.1334,2.1334,2.1333,2.1334,2.1339,2.1339,2.1338,2.1345,2.1345,2.1345,0,0,2.1172,2.1183,2.119,2.12,2.1216,2.1227,2.1228,2.1246,2.1254,2.1265,2.1276,2.1285,2.1302,2.1313,2.132,2.132,2.1328,2.1323,2.1317,2.1322,2.1322,2.1321,2.1322,2.1321,2.1323,2.1323,2.1323,0,2.1163,2.1178,2.1192,2.1201,2.1209,2.1223,2.123,2.1239,2.1257,2.1263,2.1266,2.1289,2.13,2.1312,2.1312,2.1317,2.132,2.1321,2.1321,2.1321,2.132,2.1321,2.1321,2.1322,2.1322,2.1322,2.1322,0,2.1166,2.1176,2.118,2.1197,2.1206,2.1213,2.1229,2.1236,2.1244,2.1255,2.1266,2.128,2.1294,2.1297,2.1306,2.1311,2.1312,2.1318,2.1323,2.1319,2.132,2.132,2.1321,2.1321,2.1322,2.1322,0,0,2.1151,2.1177,2.1178,2.1187,2.1205,2.1213,2.1222,2.1236,2.1241,2.1254,2.1261,2.1277,2.1282,2.1291,2.13,2.1305,2.1304,2.131,2.131,2.1308,2.1311,2.1306,2.1306,2.1309,2.1309,2.1309,2.131,0,2.1149,2.1165,2.1178,2.1189,2.1199,2.1213,2.122,2.1232,2.1243,2.1252,2.1263,2.1274,2.128,2.1286,2.1291,2.1303,2.1304,2.1303,2.1317,2.1317,2.1312,2.1307,2.1302,2.1301,2.131,2.131,2.131,0,2.1149,2.1161,2.1173,2.1191,2.1195,2.1202,2.1216,2.1225,2.1239,2.1246,2.1256,2.1266,2.1276,2.1281,2.1295,2.1293,2.13,2.1307,2.1307,2.1309,2.1313,2.1308,2.1302,2.1302,2.131,2.131,2.131,0,2.1137,2.1156,2.1166,2.1173,2.1194,2.1198,2.1207,2.1222,2.1229,2.1242,2.1247,2.126,2.1268,2.1278,2.1291,2.1293,2.1304,2.1309,2.131,2.131,2.1312,2.1312,2.1306,2.1316,2.1316,2.1316,2.1316,0,2.1133,2.114,2.1161,2.1167,2.1175,2.119,2.1198,2.1208,2.1221,2.123,2.1242,2.125,2.1267,2.1277,2.1288,2.1298,2.1301,2.1307,2.131,2.1306,2.1305,2.1311,2.1311,2.1316,2.1316,2.1316,2.1316,0,2.1121,2.1135,2.1147,2.1166,2.1171,2.1176,2.1193,2.12,2.1211,2.1221,2.1225,2.1242,2.1254,2.1269,2.1286,2.1293,2.1302,2.1306,2.1297,2.1299,2.1299,2.1299,2.1297,2.1298,2.1307,2.1307,2.1307,0,2.1118,2.1123,2.1143,2.115,2.1159,2.1169,2.1177,2.1192,2.12,2.1217,2.1222,2.1235,2.1246,2.1266,2.128,2.1293,2.1298,2.1296,2.13,2.1296,2.1298,2.1297,2.1298,2.1295,2.1295,2.1295,2.1295,0,2.111,2.1117,2.1128,2.1142,2.1151,2.1162,2.1174,2.1179,2.1197,2.1205,2.1218,2.1227,2.1244,2.1258,2.1273,2.1282,2.1292,2.1293,2.1294,2.129,2.1285,2.1288,2.1295,2.1293,2.1293,2.1294,2.1294,2.1294,2.1103,2.1108,2.1123,2.1135,2.1146,2.1157,2.1164,2.1176,2.1187,2.1203,2.1211,2.1224,2.1239,2.126,2.1269,2.128,2.1283,2.1284,2.1285,2.1285,2.1284,2.1284,2.1283,2.1283,2.1283,2.1283,2.1283,0,2.1096,2.1106,2.1117,2.1134,2.1143,2.1151,2.1165,2.1172,2.1183,2.1196,2.1208,2.1223,2.1236,2.1251,2.1265,2.1271,2.1275,2.1274,2.1274,2.1276,2.128,2.1278,2.127,2.127,2.127,2.127,2.127,2.127,2.1094,2.1104,2.1112,2.1128,2.1139,2.1151,2.1159,2.1169,2.1179,2.1196,2.1206,2.1217,2.1231,2.1246,2.1259,2.1263,2.1268,2.1265,2.1271,2.1274,2.1275,2.1276,2.1274,2.1266,2.1266,2.1266,2.1266,2.1266]}]]